User: anonymous   Login
Location: Caltech
(34.1382°N, 118.1253°W)
Time: 05:02:21
(UTC-07:00)
Language:

UOSAT-12 - Orbit

View from above orbital plane
View from above orbital plane
View from above satellite
View from above satellite

Ground track
Ground track

The orbit data is extracted from the following two-line orbital elements,

1 25693U 99021A   16152.18603084 -.00000017  00000-0  16278-4 0  9998
2 25693  64.5558 222.9224 0008541 215.2990 144.7550 14.80653812923603
Epoch (UTC): 31 May 2016 04:27:53
Eccentricity: 0.0008541
inclination: 64.5558°
perigee height: 621 km
apogee height: 633 km
right ascension of ascending node: 222.9224°
argument of perigee: 215.2990°
revolutions per day: 14.80653812
mean anomaly at epoch: 144.7550°
orbit number at epoch: 92360

The dashed part of the orbit path shows where the satellite is in the earth's shadow,  

DLR